Presure
113 195 202 182 148 171 170 163 152 164 132 177 185 176 168 185 142 190 195 193 187 155 184 179 197 195 186 191 182 182 188 189 194 193 183 189 107 187 177 180 162 186 178 139 130 176 183 193 187
184 186 209 175 176 175 180 171 159 139 181 185 136 182 180 171 157 186 179 178 181 128 190 184 194 188 201 148 174 185 169 184 180 172 186 179 182 185 191 189 151 162 174 173 170 144 179 179 190
160 183 180 174 170 178 164 175 166 174 177 136 142 178 172 169 180 189 190 189 159 198 189 182 208 204 199 201 190 182 189 183 184 179 182 174 176 176 182 179 186 181 181 142 156 132 171 180 173
182 189 187 176 182 180 169 166 183 167 139 192 121 172 151 109 173 149 184 187 188 177 183 207 189 183 201 154 190 154 175 187 194 163 182 176 164 188 180 174 179 188 182 184 175 181 185 188 198
183 187 179 177 180 167 189 175 177 160 182 175 170 164 157 149 167 116 158 186 186 177 171 197 223 200 197 205 185 188 190 184 174 191 186 186 180 182 177 172 175 185 182 183 179 185 183 186 187
183 173 123 183 168 165 174 179 189 188 181 181 186 191 169 167 137 162 149 172 194 187 159 167 204 140 166 217 185 189 195 192 192 181 187 182 181 177 185 179 137 175 168 165 167 172 185 200 180
184 177 180 177 120 182 182 193 194 186 124 178 180 169 106 166 150 162 177 178 170 204 135 160 177 206 178 197 149 177 181 193 191 190 193 189 177 176 189 176 170 178 176 177 182 186 127 181 183
170 178 179 181 158 186 185 191 180 155 179 173 161 161 167 169 169 173 176 170 171 158 170 195 187 205 166 114 195 203 157 204 192 191 195 191 187 181 185 179 183 178 175 176 184 181 173 181 173
189 173 184 203 191 198 181 175 181 182 177 165 158 164 148 167 162 171 154 170 140 190 193 191 187 96 207 160 175 183 177 163 191 193 189 187 170 182 181 180 189 186 186 182 181 176 177 176 170
181 181 173 190 195 182 181 172 181 170 176 148 162 175 165 171 130 171 167 186 190 139 190 192 196 174 177 208 145 117 196 158 210 205 202 190 181 181 182 187 187 184 182 181 175 179 172 172 176
190 193 185 169 197 194 178 178 174 175 163 165 161 108 171 173 168 185 162 115 189 159 190 179 186 181 184 180 177 187 165 197 156 181 199 196 193 196 188 186 177 181 179 174 175 175 173 173 177
197 161 181 189 195 167 190 188 186 177 172 177 186 180 163 169 192 195 194 188 188 170 178 185 141 186 184 181 188 178 191 156 188 161 193 149 178 191 192 176 181 177 171 165 173 174 170 172 181
174 161 173 165 171 187 152 135 189 152 183 191 151 208 198 192 174 169 210 187 191 183 180 179 185 187 182 184 184 152 181 191 180 168 189 176 154 183 183 175 180 177 171 173 173 172 180 177 173
184 184 169 184 160 160 193 160 168 181 184 159 187 170 185 153 155 166 150 159 174 155 147 160 181 188 186 184 179 188 183 137 175 189 175 193 173 183 187 183 177 170 174 176 176 179 180 170 170
192 178 186 164 193 179 155 163 158 174 156 161 154 164 143 161 150 178 190 143 157 158 153 191 176 132 157 146 145 90 168 182 184 191 183 184 191 186 162 180 186 187 171 178 181 181 176 173 171
178 191 176 173 157 177 176 152 154 176 152 145 182 132 130 159 155 159 135 165 141 139 151 137 158 174 167 146 150 203 155 161 197 185 175 179 179 184 165 169 184 168 176 188 160 184 175 174 174
162 185 158 169 163 143 153 137 158 165 159 161 166 157 142 172 140 158 148 161 168 160 156 168 144 149 145 140 147 149 171 149 200 181 187 178 177 180 177 176 172 181 171 170 168 177 175 156 174
156 160 196 164 174 168 159 160 153 159 179 160 151 162 169 177 138 166 151 173 180 179 179 163 141 172 169 147 133 146 155 163 145 163 163 153 185 179 163 158 177 172 174 181 174 169 174 178 175
166 168 173 156 157 178 165 165 168 159 159 201 169 158 166 160 154 158 138 132 172 181 175 180 175 172 172 200 192 130 156 153 154 148 154 152 146 138 140 187 183 151 171 161 172 172 180 178 173
168 175 164 163 162 155 167 142 167 158 160 159 162 161 155 156 165 187 162 183 149 177 185 181 133 177 177 176 186 189 184 197 195 149 176 145 135 158 161 152 153 148 183 181 181 173 174 177 182
168 163 164 153 159 158 154 169 168 155 158 163 165 168 166 163 165 175 188 200 194 181 184 181 183 171 181 175 180 174 177 172 182 161 162 187 182 178 174 170 137 171 163 160 170 170 155 185 182
170 170 169 180 161 174 169 167 168 160 160 162 159 161 175 162 160 180 199 184 160 208 195 181 178 185 186 180 180 171 178 180 185 194 195 193 190 196 153 170 155 151 139 147 186 160 155 163 160
175 157 175 171 165 162 190 156 171 129 83 173 168 182 167 184 211 171 188 107 82 160 90 188 198 195 186 200 185 215 166 244 193 193 200 183 181 183 191 183 126 171 164 155 139 124 171 165 182
174 159 161 180 174 161 157 170 171 162 167 114 186 198 189 181 89 120 120 112 179 140 190 169 180 192 218 195 174 194 193 163 174 186 191 174 182 177 179 190 188 184 184 183 134 145 133 144 143
174 178 173 170 176 172 174 173 182 180 167 128 180 166 161 90 123 176 188 167 185 167 194 167 176 142 127 113 170 131 104 191 144 186 181 176 175 187 188 189 165 197 189 184 131 195 187 144 192
166 167 179 166 181 175 172 182 181 181 173 183 145 175 194 75 82 182 168 198 176 199 154 84 96 85 198 174 122 106 203 156 145 165 170 142 160 177 180 171 176 173 155 186 187 161 182 187 188
174 183 181 172 185 185 187 187 179 177 180 184 206 196 168 81 175 160 191 185 185 163 197 151 144 173 88 152 175 152 86 137 160 213 200 194 100 194 184 218 176 161 176 192 192 195 176 190 193
180 172 175 180 179 178 166 182 182 191 166 199 202 198 196 181 221 230 195 152 154 179 172 174 139 172 217 167 170 190 135 199 156 169 198 177 161 150 161 184 178 204 201 186 195 191 174 186 206
175 180 181 178 187 178 188 194 196 206 202 192 193 190 200 213 183 191 210 219 161 192 190 212 203 185 187 188 183 208 228 216 183 185 143 220 165 84 115 137 150 202 151 196 187 183 200 198 196
195 214 183 185 198 201 206 200 181 198 198 209 218 248 203 195 221 208 211 219 208 212 207 174 186 172 238 236 239 234 253 239 257 249 147 133 238 242 237 246 202 132 241 149 207 165 146 183 185
Wind_Speed
28 43 44 50 65 41 48 48 62 50 42 45 51 50 55 50 50 44 44 41 43 39 51 49 46 45 44 42 47 49 51 51 49 45 46 43 48 46 53 49 56 41 48 56 56 50 41 34 33
44 45 41 46 51 47 42 47 58 44 50 51 49 51 55 52 47 49 45 46 44 51 52 50 47 46 46 45 50 49 56 52 52 51 44 49 48 46 42 42 50 50 49 52 57 51 46 45 33
51 45 46 52 54 47 47 46 48 48 49 46 58 51 49 53 53 47 47 47 39 42 50 52 44 47 47 44 48 51 51 54 52 50 47 51 51 49 45 43 41 45 46 58 45 62 51 44 50
43 43 43 52 50 46 49 44 46 55 48 43 38 53 57 47 50 43 48 49 49 42 44 40 46 47 46 49 46 50 55 51 49 52 49 51 55 48 47 48 44 40 41 43 49 44 39 38 32
40 39 47 53 49 47 36 42 52 53 45 50 48 47 49 43 46 26 46 50 51 46 44 42 38 41 45 43 47 50 48 51 52 47 48 49 51 48 50 50 48 40 45 43 44 39 41 38 38
36 41 28 49 50 48 39 42 44 46 47 41 43 38 59 54 51 57 45 52 49 48 45 45 38 48 49 39 46 49 47 48 51 48 47 49 47 50 45 47 54 46 52 48 44 47 40 32 43
38 44 48 47 53 43 46 40 39 40 40 38 36 45 39 55 56 45 52 55 51 49 39 38 49 38 40 41 43 45 49 49 49 44 46 47 49 51 43 49 51 45 47 48 43 39 52 41 38
42 48 50 47 51 41 43 37 39 51 35 43 48 54 56 58 57 56 57 59 55 47 47 48 48 39 45 42 42 44 45 45 48 46 48 46 45 47 44 48 46 47 48 47 41 40 43 39 46
50 49 47 44 46 34 35 41 37 43 43 46 46 48 47 54 56 54 52 60 42 52 49 49 46 34 36 43 48 47 47 45 45 45 49 49 51 47 47 49 44 44 44 41 40 41 41 43 47
45 45 42 43 40 39 33 40 38 46 43 49 47 47 52 49 47 57 55 54 54 48 49 50 47 47 46 37 45 39 42 47 43 45 47 47 49 47 48 46 41 43 44 41 42 41 44 47 45
44 41 43 38 37 36 37 41 43 46 50 53 52 55 49 51 53 49 45 45 47 45 47 49 54 53 53 51 50 42 42 44 44 42 45 45 45 42 45 43 45 45 44 45 45 44 46 47 45
39 39 39 35 33 33 39 39 44 51 50 57 49 51 50 51 45 39 36 43 42 43 45 46 62 55 56 51 52 52 43 43 45 45 45 49 47 44 43 47 44 46 48 52 48 47 49 49 45
37 37 34 33 30 36 42 53 39 33 35 36 47 31 39 41 41 44 31 37 40 42 46 48 47 50 52 54 55 46 55 49 52 47 49 48 51 46 46 47 47 49 51 52 51 50 47 48 50
40 37 37 34 25 27 38 40 44 29 36 41 38 41 37 45 49 54 48 42 45 44 50 47 45 48 50 49 51 53 57 61 50 50 52 49 52 51 50 49 51 52 54 54 53 51 48 53 53
42 44 43 32 33 28 28 46 38 38 37 33 29 39 48 44 51 50 50 52 41 49 55 47 51 44 51 41 39 45 47 57 58 53 55 53 51 55 45 55 54 54 55 55 54 53 54 54 55
47 48 47 43 38 31 36 50 46 44 44 53 47 53 54 47 46 52 51 51 57 52 49 56 57 56 56 48 48 50 49 51 58 61 56 58 57 54 49 52 58 55 58 59 52 57 58 59 59
41 49 43 47 40 52 41 64 56 53 51 49 53 47 53 54 54 53 52 56 64 66 65 64 56 61 58 49 51 53 58 51 56 57 63 58 57 59 60 60 57 62 60 61 59 63 64 61 61
42 45 52 54 51 50 48 50 54 61 63 58 57 62 64 65 60 61 47 70 68 70 69 70 67 71 66 61 55 54 59 60 51 54 52 50 64 62 57 57 64 61 63 69 69 63 69 71 68
53 54 54 55 54 55 62 59 62 65 67 62 70 59 69 66 56 63 68 65 75 76 74 76 77 79 78 69 74 54 63 64 63 59 58 56 54 57 59 69 71 56 69 61 71 70 73 75 73
60 57 58 61 62 54 68 55 69 70 73 71 73 79 68 66 82 74 74 74 71 76 78 77 69 82 83 81 78 75 78 72 72 65 70 63 59 64 65 65 67 64 77 75 78 74 73 77 80
64 63 63 55 66 66 63 70 75 75 76 81 81 83 82 84 86 83 70 63 74 76 80 82 82 82 87 86 85 80 82 71 72 72 70 73 76 76 74 74 70 78 74 73 77 72 61 81 78
68 74 69 68 68 74 76 70 75 81 82 86 82 84 85 80 74 76 62 70 69 62 80 81 85 86 88 92 89 80 86 84 84 83 73 73 67 74 78 79 75 75 77 76 84 71 72 66 64
74 62 76 75 69 69 77 74 77 60 23 93 91 88 87 83 62 82 61 39 35 81 43 72 74 73 84 81 94 78 64 71 86 85 78 75 71 74 80 83 71 88 83 75 79 55 84 74 87
80 66 71 78 81 65 75 88 79 83 81 50 79 74 78 78 21 45 59 44 76 74 75 83 74 65 70 76 86 78 86 68 78 80 80 73 79 80 83 89 94 95 95 96 59 74 60 74 72
81 88 84 82 88 89 89 90 81 83 84 57 77 73 78 31 45 82 77 87 78 89 74 80 90 55 41 46 73 53 39 84 62 82 82 78 79 83 89 96 80 100 101 92 73 101 92 74 93
86 87 92 85 92 90 91 88 82 85 80 79 65 79 79 30 37 74 88 90 88 80 56 25 33 22 83 99 62 34 88 59 63 79 78 74 76 87 101 84 86 85 82 93 97 76 82 87 91
95 101 99 93 96 94 92 88 83 78 82 77 88 74 66 43 70 86 87 88 79 79 75 53 73 94 38 67 63 52 25 78 73 79 95 90 36 105 113 96 87 81 89 110 110 109 77 96 100
100 97 99 100 100 94 76 92 89 95 79 89 91 87 80 73 101 96 83 68 68 95 94 78 73 77 101 74 79 100 68 104 82 93 93 86 80 83 86 113 105 123 100 109 111 112 75 95 114
101 105 106 105 105 102 102 94 97 98 96 85 88 87 100 99 88 85 87 81 91 84 100 93 96 117 110 109 104 117 118 111 101 105 78 107 95 33 58 62 71 132 74 113 107 98 119 112 114
102 99 102 105 109 110 111 87 77 92 94 109 115 113 83 83 106 78 88 107 85 93 95 108 112 75 118 121 122 123 120 114 110 111 48 60 115 120 118 123 128 49 132 67 129 73 64 100 103
Wind_Direction
285 283 278 275 283 270 276 278 281 281 292 273 269 279 277 280 279 284 279 272 271 272 275 277 267 264 262 262 265 265 267 267 267 264 258 262 259 260 259 259 260 264 261 268 271 264 265 265 266
289 286 279 274 273 274 277 277 280 288 278 276 276 282 280 278 282 281 281 277 277 278 279 277 277 274 270 264 263 264 265 266 263 258 262 260 261 261 264 263 266 265 260 260 261 270 266 266 268
281 281 278 276 275 277 274 276 283 282 275 284 294 278 284 279 284 285 285 281 274 276 275 278 272 268 265 261 261 261 263 263 264 263 263 261 261 261 261 265 263 263 263 270 268 273 265 265 265
286 277 274 274 275 275 280 282 274 277 273 266 253 274 291 279 280 257 283 283 282 279 275 271 272 274 265 268 261 267 262 262 265 269 264 263 262 267 264 259 261 267 267 264 265 267 267 267 269
280 276 274 273 277 277 284 273 269 266 267 266 271 262 273 287 268 263 285 283 287 285 275 281 270 267 265 264 259 260 264 263 262 261 262 264 265 266 265 263 263 270 266 265 263 268 267 268 264
281 271 268 277 275 281 277 265 271 272 275 273 267 265 271 278 260 285 281 286 291 288 274 279 279 259 262 267 263 264 263 263 264 263 263 264 265 266 268 265 254 266 264 265 265 262 268 272 265
289 282 283 283 295 286 280 276 270 269 284 265 270 265 276 273 276 274 284 284 286 288 276 277 283 271 271 267 266 267 269 264 267 266 266 263 260 263 267 265 264 267 268 269 270 273 264 265 266
289 287 288 289 280 285 279 271 272 279 257 252 267 275 274 281 286 290 289 288 289 291 286 280 281 275 276 281 269 267 279 268 268 268 266 262 261 261 266 266 267 267 266 270 272 271 266 267 264
283 279 285 287 285 276 270 274 271 263 258 266 268 270 270 278 283 285 282 289 255 288 286 285 282 260 277 263 280 276 272 275 268 265 264 263 264 263 264 265 269 267 267 268 269 267 269 266 267
283 282 287 289 285 279 270 270 269 271 267 262 268 264 268 272 279 282 283 287 287 281 285 284 286 280 281 275 262 272 268 267 266 265 265 265 266 266 267 267 266 264 265 267 264 266 267 268 270
284 283 288 282 281 275 273 273 273 263 270 271 270 276 274 274 277 282 279 283 283 287 285 284 283 285 286 282 282 275 276 270 271 269 268 267 266 264 263 265 267 266 267 267 266 267 266 265 266
289 285 288 290 279 291 277 268 268 263 272 276 273 267 277 277 276 278 273 277 278 280 285 287 271 284 285 285 286 285 277 273 276 271 271 264 271 270 267 267 263 264 266 269 268 266 267 265 261
290 282 290 278 288 284 281 291 270 271 270 270 286 276 273 271 274 284 280 277 275 279 281 281 280 280 283 286 287 275 288 283 284 269 275 275 269 271 268 269 265 264 266 265 267 267 263 263 264
292 286 291 273 274 287 271 282 281 292 280 273 277 276 279 284 290 286 291 295 298 283 287 285 278 279 277 279 281 283 284 261 280 278 281 273 282 278 273 268 267 269 268 267 267 264 262 264 265
293 296 297 283 282 290 269 280 283 290 285 271 265 282 282 288 286 292 286 287 294 290 292 272 284 258 287 282 273 282 280 282 279 274 277 276 268 272 270 277 267 261 273 269 265 261 262 262 263
300 285 301 285 290 298 293 278 277 281 269 279 281 278 281 285 290 287 284 304 283 282 275 281 289 286 276 278 286 275 285 286 274 278 275 276 277 269 276 275 272 273 276 266 272 262 267 266 266
301 287 297 303 302 291 291 271 293 298 288 288 294 272 258 298 274 290 285 297 296 289 286 288 279 283 281 275 269 272 279 277 274 267 274 275 275 273 276 277 277 270 275 276 275 278 275 273 272
289 299 275 298 298 298 296 295 296 298 282 284 276 294 299 303 271 297 274 294 279 282 279 281 280 282 280 272 263 270 275 280 266 272 273 273 273 273 280 272 276 275 274 270 276 273 273 275 274
301 300 294 294 297 294 294 296 288 293 298 280 290 298 302 295 283 289 262 271 290 282 282 282 281 284 285 277 276 260 268 270 273 269 272 271 265 261 265 271 270 267 273 273 273 275 270 271 273
297 291 294 296 296 296 296 279 291 295 294 298 305 299 295 295 298 286 291 282 275 285 278 279 275 283 282 283 283 279 278 276 274 270 272 266 256 272 271 268 270 265 271 269 266 269 271 272 272
291 294 289 289 296 295 294 287 283 296 296 297 294 290 287 291 293 289 286 278 278 278 279 279 278 282 277 281 278 279 282 282 281 269 266 270 271 270 267 266 270 271 268 270 272 266 260 267 266
294 290 294 277 292 278 289 293 280 291 296 295 294 296 288 290 287 280 281 278 283 280 270 276 281 279 277 277 277 280 279 282 284 280 275 278 270 272 265 267 266 267 268 272 264 268 262 266 265
287 291 285 285 291 295 270 296 279 290 281 288 292 287 289 279 291 277 283 273 286 284 287 269 267 272 274 277 275 281 277 281 280 280 276 268 267 267 271 267 273 266 266 266 266 277 268 266 266
285 291 292 277 289 290 284 290 286 287 289 283 286 288 285 282 270 273 284 287 278 278 275 276 271 279 285 277 275 282 275 268 276 268 277 272 272 270 268 266 265 265 265 263 265 271 274 256 265
282 281 288 293 288 288 284 289 285 282 288 284 283 285 281 281 279 278 293 277 290 277 285 273 269 271 287 281 277 274 285 269 272 266 269 273 274 270 269 270 265 270 268 267 269 261 266 272 262
289 290 284 293 282 285 288 286 286 284 283 283 283 278 281 289 289 279 277 296 282 291 264 298 282 297 274 275 275 289 268 263 263 276 275 271 272 262 263 269 262 269 264 271 268 260 272 268 265
286 282 282 287 285 284 285 284 286 286 284 284 285 279 282 278 271 274 293 285 286 282 284 267 274 275 287 256 279 269 272 264 278 261 262 254 278 268 264 270 270 262 276 266 267 269 270 266 268
280 285 285 284 284 283 285 285 289 285 281 288 294 292 291 291 292 287 281 281 281 275 274 270 277 294 290 284 262 278 277 273 276 261 264 258 273 276 267 274 276 266 265 275 268 269 262 274 266
279 279 280 282 281 285 282 282 284 289 293 290 291 284 283 291 268 268 290 291 280 274 267 286 272 269 279 276 267 272 276 272 272 272 272 265 270 283 276 275 274 266 274 266 269 269 269 271 271
269 271 277 279 279 281 284 288 290 292 292 292 292 289 290 287 302 287 295 301 277 283 268 275 268 284 283 281 278 276 276 271 271 270 268 273 263 260 260 261 262 266 264 282 267 274 274 269 262